SHIYAN 19 (SY-19) (55861 NORAD) Tracking and Keplerian Element Data

This shows tracking and keplerian element data for the satellite.

Feedback or suggestion? Click here.




ElementValue
Catalog55861
NameSHIYAN 19 (SY-19)
Epoch Orbit790
Epoch Day126.52490931
Epoch Year2023
RAAN314.3971
Inclination97.4651
Eccentricity0.0015962
Argument of Perigee97.1707
Mean Anonmoly330.6035
Mean Motion15.21102939
Decay Rate5.775E-05
L11 55861U 23034A 23126.52490931 .00005775 00000+0 26193-3 0 9991
L22 55861 97.4651 314.3971 0015962 97.1707 330.6035 15.21102939 7900



Live tracking and technical data element details for SHIYAN 19 (SY-19) (NORAD 55861). SHIYAN 19 (SY-19) can be tracked NOW for your location showing map with azimuth and elevation plus other details from your city location.







IsCatalogInMostPopularTable: catalog: 55861, numindb: 6
Update: records affected: 1



GetName: 55861 SHIYAN 19 (SY-19)

Hit Count: updated at: Tue, 06 Jun 2023 04:05:15 GMT